Regional Weather Roundup
Issued by NWS

Home | Current Version | Previous Version | Graphics & Text | Print | Product List | Glossary Off
Versions: 1 2 3 4 5 6 7 8 9 10 11 12 13 14 15 16 17 18 19 20 21 22 23 24 25 26 27 28 29 30 31 32 33 34 35 36 37 38 39 40 41 42 43 44 45 46 47 48 49 50

000
ASUS43 KDMX 010507
RWRIA

WEATHER ROUNDUP FOR IOWA
NATIONAL WEATHER SERVICE DES MOINES IA
1200 AM CDT WED JUL 01 2015

NOTE: "FAIR" INDICATES FEW OR NO CLOUDS BELOW 12,000 FEET WITH NO
SIGNIFICANT WEATHER AND/OR OBSTRUCTIONS TO VISIBILITY.

* - THESE STATIONS ARE NOT NWS STATIONS...THUS NOT UNDER NWS
QUALITY CONTROL.  THEY ALSO DO NOT REPORT WEATHER SUCH
AS PRECIPITATION OR FOG.

IAZ001>003-012>014-020>022-031>034-043>046-010600-
   NORTHWEST IOWA

CITY           SKY/WX    TMP DP  RH WIND       PRES   REMARKS
CARROLL *      CLEAR     68  68 100 CALM      29.92R
CHEROKEE *     MOCLDY    66  64  94 E5        29.89F
DENISON *      PTCLDY    68  66  94 CALM      29.89F FOG
LE MARS *      CLEAR     70  68  94 VRB3G12   29.88F
ORANGE CITY *  CLEAR     64  63  94 E6        29.89F
SHELDON *      PTCLDY    64  64 100 E9        29.89F
STORM LAKE *   CLEAR     66  63  88 E8        29.92S
$$

IAZ055>058-069>071-079>083-090>094-010600-
   SOUTHWEST IOWA

CITY           SKY/WX    TMP DP  RH WIND       PRES   REMARKS
ATLANTIC *     CLOUDY    68  68 100 CALM      29.91F
AUDUBON *      PTCLDY    68  64  88 CALM      29.93S FOG
CLARINDA *     LGT RAIN  70  68  94 SE5       29.92F
COUNCIL BLFS * MOCLDY    68  66  94 S7        29.92F
CRESTON *      CLOUDY    68  66  94 W9        29.93R
HARLAN  *      PTCLDY    68  68 100 NE13      29.94S
RED OAK *      LGT RAIN  68  68 100 E7        29.92F
SHENANDOAH *   PTCLDY    70  68  94 N8        29.93R
$$

IAZ047>049-059>061-072>074-084-010600-
   CENTRAL IOWA

CITY           SKY/WX    TMP DP  RH WIND       PRES   REMARKS
ANKENY *       PTCLDY    70  66  88 CALM      29.90F
CHARITON *     MOCLDY    72  68  88 CALM      29.91S
GRINNELL*      CLOUDY    68  64  88 NE7       29.92S
KNOXVILLE *    MOCLDY    73  66  78 NE5       29.90R
PELLA *        CLOUDY    70  69  97 CALM      29.91S
PERRY *          N/A     70  64  83 E3        29.91R
$$

IAZ004>006-015-016-023>025-035-036-010600-
   NORTH CENTRAL IOWA

CITY           SKY/WX    TMP DP  RH WIND       PRES   REMARKS
ALGONA *       CLOUDY    66  63  88 E6        29.93S
CLARION *      CLOUDY    66  63  88 E9        29.91F
FOREST CITY *  CLEAR     63  59  88 NE3       29.93F
IOWA FALLS *     N/A     66  63  88 E3        29.93F
$$

IAZ007>011-017>019-026>030-037>042-050>054-066-010600-
   NORTHEAST IOWA

CITY           SKY/WX    TMP DP  RH WIND       PRES   REMARKS
CHARLES CITY * CLEAR     63  59  88 NE6       29.94S
DECORAH *        N/A    N/A N/A N/A MISG        N/A
MONTICELLO *   CLEAR     61  59  94 CALM      29.92S FOG
OELWEIN *        N/A     61  59  94 NE6       29.93F
$$

IAZ064-065-067-068-078-010600-
   EAST CENTRAL IOWA

CITY           SKY/WX    TMP DP  RH WIND       PRES   REMARKS
MT. PLEASANT * MOCLDY    72  66  83 N6        29.89S
MUSCATINE *    MOCLDY    68  64  88 CALM      29.90S
$$

IAZ062-063-075>077-085>089-095>099-010600-
   SOUTHEAST IOWA

CITY           SKY/WX    TMP DP  RH WIND       PRES   REMARKS
FAIRFIELD *    MOCLDY    68  66  94 N8        29.90S
FORT MADISON * CLEAR     70  70 100 CALM      29.90S
KEOKUK *       CLEAR     70  68  94 CALM      29.88S
OSKALOOSA *      N/A     68  66  94 CALM      29.90S
CENTERVILLE *  MOCLDY    70  68  94 CALM      29.93R
WASHINGTON *   CLEAR     68  64  88 NE7       29.92S
$$

ABBREVIATIONS USED IN REMARKS
   TC - TEMPERATURES IN CELSIUS
  WCI - WIND CHILL INDEX
   HX - HEAT INDEX
  VSB - VISIBILITY
$$



USA.gov is the U.S. government's official web portal to all federal, state and local government web resources and services.